www.pogodaiklimat.ru

Погода и климат >> Архив погоды >> Россия >> Ростовская область >> Таганрог


АРХИВ ПОГОДЫ в Таганроге

Время (UTC), дата Ветер
(напр.,м/с)
 
Видим.   Явления Облачность Т
(С)
Тd
(С)
f
(%)
Тe
(С)
Тes
(С)
Комфортность P
(гПа)
Po
(гПа)
Тmin
(С)
Tmax
(С)
R
(мм)
R24
(мм)
S
(см)
00 18.03 С 3 10 км {дождь} 9/9 600 м
[Sc]
+5.5 +2.9 83 +2 +2 тепло 1018.0 1014.0
03 18.03 С 3 10 км 10/10 600 м
[Sc]
+5.1 +2.8 85 +2 +2 тепло 1019.5 1015.5 +5.1 4
06 18.03 С 2 10 км 9/9 300 м
[St As trans]
+7.1 +2.1 70 +5 +6 тепло 1022.2 1018.3 +5.1
09 18.03 СВ 1 20 км 9/9 600 м
[St Ac trans]
+9.4 +3.9 68 +9 +10 тепло 1023.5 1019.5
12 18.03 ЮВ 1 20 км 9/9 600 м
[St]
+9.2 +3.9 69 +9 +10 тепло 1024.1 1020.2
15 18.03 СВ 1 20 км 4/3 1000 м
[Sc Ac trans]
+10.0 +2.2 58 +10 +10 тепло 1024.2 1020.3 +11.3
18 18.03 В 2 20 км 9/9 1000 м
[Sc]
+8.5 +2.4 65 +7 +7 тепло 1025.7 1021.8
21 18.03 В 4 20 км 3/0
[Ac trans]
+7.1 +1.7 68 +4 +4 тепло 1025.9 1021.9
00 19.03 В 2 20 км ясно +4.9 +1.5 79 +2 +2 тепло 1026.5 1022.4
03 19.03 СВ 2 20 км ясно +3.1 +1.0 86 0 0 по сезону 1027.0 1023.0 +3.1
06 19.03 В 3 20 км 8/8 600 м
[St]
+4.9 +1.8 80 +1 +2 по сезону 1027.3 1023.3 +2.9
09 19.03 В 3 10 км 10/10 300 м
[St]
+5.7 +3.0 83 +2 +2 по сезону 1027.8 1023.8
12 19.03 В 2 20 км 3/3 300 м
[St]
+9.9 +4.4 69 +9 +13 тепло 1026.9 1022.9
15 19.03 В 4 20 км 3/3 300 м
[St]
+6.5 +2.2 74 +3 +3 по сезону 1026.6 1022.6 +10.0
18 19.03 В 3 20 км 10/10 300 м
[St]
+4.7 +1.0 77 +1 +1 по сезону 1027.3 1023.3
21 19.03 В 3 20 км 9/9 300 м
[St]
+4.0 +0.8 80 0 0 по сезону 1027.2 1023.2
00 20.03 В 3 20 км 10/10 600 м
[Sc]
+3.7 +1.0 83 -0 -0 по сезону 1026.9 1022.8
03 20.03 СВ 2 20 км 3/3 300 м
[St]
+2.3 +0.6 89 -1 -1 по сезону 1026.3 1022.2 +2.3
06 20.03 С 3 20 км 4/4 300 м
[St]
+3.6 +0.5 80 -0 +2 по сезону 1026.7 1022.7 +1.7
09 20.03 В 2 20 км 1/0
[Ci fib]
+9.8 -0.2 50 +9 +19 опасность
простуды
1026.0 1022.0
12 20.03 В 2 20 км 1/0
[Ci fib]
+13.1 -3.9 30 +13 +19 тепло 1024.3 1020.4
15 20.03 В 3 20 км ясно +10.6 -3.3 38 +9 +9 тепло 1023.6 1019.7 +13.2
18 20.03 СВ 2 20 км ясно +8.7 -2.6 45 +7 +7 тепло 1024.6 1020.6
21 20.03 СВ 2 20 км ясно +7.4 -3.2 47 +6 +6 тепло 1024.4 1020.4
00 21.03 СВ 1 20 км ясно +5.3 -0.4 67 +4 +4 тепло 1023.8 1019.8
03 21.03 С 2 20 км ясно +2.9 -2.7 67 0 0 по сезону 1023.5 1019.4 +2.9
06 21.03 Ю 1 20 км ясно +7.0 -0.8 58 +6 +12 тепло 1024.1 1020.1 +2.4
09 21.03 З 1 10 км 9/9 1000 м
[Sc]
+7.7 +0.5 60 +7 +8 тепло 1023.9 1019.9
12 21.03 С 4 20 км 9/8 1000 м
[Sc Ac trans Cc]
+8.6 +0.6 57 +6 +7 по сезону 1023.3 1019.3
15 21.03 Ю 3 20 км 9/9 1000 м
[Sc]
+7.0 +2.3 72 +4 +4 по сезону 1022.5 1018.6 +10.6
18 21.03 ЮЗ 2 20 км 9/9 1000 м
[Sc]
+6.6 +3.3 79 +4 +4 по сезону 1022.8 1018.8
21 21.03 С 2 20 км 9/9 1000 м
[Sc]
+6.3 -6.0 41 +5 +5 тепло 1022.6 1018.6
00 22.03 С 2 20 км 5/5 1000 м
[Sc]
+3.6 -2.2 66 +1 +1 по сезону 1022.9 1018.9
03 22.03 СЗ 2 20 км 1/0
[]
+1.8 -2.1 75 -1 -1 по сезону 1023.0 1018.9 +1.8
06 22.03 СЗ 3 20 км ясно +5.1 -2.6 57 +2 +6 по сезону 1023.6 1019.6 +1.6
09 22.03 СЗ 2 20 км 8/8 600 м
[Cb cap Ac trans]
+7.9 -6.8 35 +7 +9 тепло 1022.5 1018.5
12 22.03 ЮЗ 5-14
{14}
20 км 9/5 600 м
[Cb cap Ac lent]
+6.7 -0.8 59 +3 +4 по сезону 1020.0 1016.1
15 22.03 ЮЗ 5-11
{15}
20 км 10/8 600 м
[St As op]
+6.1 -0.2 64 +2 +2 по сезону 1017.6 1013.6 +8.8
18 22.03 ЮЗ 12-16
{16}
20 км 10/10 600 м
[St]
+6.4 +0.8 67 0 0 по сезону 1014.0 1010.1
21 22.03 СЗ 3
{19}
20 км в посл. час дождь 10/10 300 м
[St]
+5.1 +1.3 76 +2 +2 по сезону 1011.9 1007.9
00 23.03 З 2
{13}
20 км {дождь} 3/3 600 м
[St]
+3.6 -0.8 73 +1 +1 по сезону 1012.1 1008.1
03 23.03 З 2 20 км 1/1 1000 м
[Sc]
+1.7 -3.0 71 -1 -1 по сезону 1012.8 1008.8 +1.7 3
06 23.03 СЗ 3 20 км 1/0
[Cc]
+3.9 -3.9 57 +1 +4 по сезону 1013.3 1009.3 +1.4
09 23.03 З 3 20 км 9/9 600 м
[Cb cap]
+5.2 -3.4 54 +2 +3 по сезону 1012.6 1008.7
12 23.03 З 3 20 км {ливн. осадки} 8/8 600 м
[Cb cap]
+6.3 -6.6 39 +4 +5 по сезону 1012.2 1008.2
15 23.03 СЗ 4 20 км 9/9 300 м
[Cb cap]
+4.4 -3.6 56 +1 +1 по сезону 1013.0 1009.0 +8.3 2
18 23.03 СЗ 2 20 км слаб. ливневой дождь 9/9 300 м
[Cb cap]
+2.3 -0.6 81 -1 -1 по сезону 1014.4 1010.4
21 23.03 СЗ 3 20 км слаб. ливневой дождь 10/10 300 м
[Cb cap]
+2.2 -0.9 80 -2 -2 по сезону 1014.7 1010.7
00 24.03 СЗ 3 20 км слаб. дождь 10/10 300 м
[Frnb]
+2.3 -1.7 75 -2 -2 по сезону 1014.6 1010.6
03 24.03 СЗ 2 20 км {ливн. осадки} 8/6 600 м
[Sc Ac trans]
+1.9 -2.2 74 -1 -1 по сезону 1014.9 1010.9 +1.9 0.8
06 24.03 СЗ 3 20 км {ливн. осадки} 9/8 600 м
[St Ac trans]
+3.1 -2.0 69 -1 0 по сезону 1015.9 1011.9 +1.7
09 24.03 З 1 20 км 9/9 600 м
[Sc]
+5.8 -4.6 47 +5 +7 по сезону 1015.5 1011.5
12 24.03 СЗ 2 20 км 9/8 600 м
[Sc Ci fib]
+6.0 -5.2 44 +4 +6 по сезону 1015.0 1011.0
15 24.03 СЗ 2 20 км 10/10 1000 м
[Sc]
+5.1 -5.5 46 +3 +3 по сезону 1015.2 1011.2 +7.2
18 24.03 З 2 20 км 10/10 1000 м
[Sc]
+4.6 -4.1 53 +3 +3 по сезону 1016.1 1012.1
21 24.03 ЮЗ 3 20 км 10/10 1000 м
[Sc]
+5.4 +1.4 75 +2 +2 по сезону 1015.4 1011.5

 

Местоположение метеостанции Таганрог (Ростовская область, Россия): широта 47.20 долгота 38.90 высота над уровнем моря 32 м.

В архиве по умолчанию представлена погода в Таганроге за последнюю неделю. Архивные данные за месяц целиком и за предыдущие месяцы, начиная с января 2011 года, Вы можете получить, выбрав интересующий диапазон дат из раскрывающегося списка и нажав кнопку "Ввод!".


*Определитесь, кто Вы:
робот инопланетянин человек

Внимание! Время в таблицах - всемирное. Для получения местного времени необходимо прибавить поправку, которая равна 3 ч.

Смотрите также архив погоды в соседних городах и на ближайших метеорологических станциях:

Погода в Маргаритово (Ростовская область, Россия) (30 км)
Погода в Матвеевом Кургане (Ростовская область, Россия) (41 км)
Погода в Ейске (Краснодарский край, Россия) (65 км)
Погода в Ростове-на-Дону (Ростовская область, Россия) (70 км)
Погода в Староминская (Краснодарский край, Россия) (75 км)
Погода в Аэропорту Платов (Ростовская область, Россия) (83 км)
Погода в Кущевской (Краснодарский край, Россия) (92 км)
Погода в Должанке (Краснодарский край, Россия) (106 км)
Погода в Мариуполе (Донецкая область, Украина) (108 км)
Погода в Зерноград (Ростовская область, Россия) (114 км)

Пояснения к столбцам:

Ветер - указаны скорость ветра в м/с - средняя за 10 мин, порывы в срок и между сроками (в фигурных скобках) и направление, откуда дует ветер: С - северный, СВ - северо-восточный, В - восточный, ЮВ - юго-восточный, Ю - южный, ЮЗ - юго-западный, З - западный, СЗ - северо-западный.
Видимость - горизонтальная дальность видимости в метрах или километрах. При видимости от 1 до 10 км при отсутствии осадков обычно наблюдается дымка, при ухудшении видимости до 1 км и менее - туман. В сухую погоду видимость может ухудшаться дымом, пылью или мглою.
Явления - указаны атмосферные явления, наблюдавшиеся в срок или в последний час перед сроком; фигурными скобками обозначены явления, наблюдавшиеся между сроками (за 1-3 часа до срока); квадратными скобками обозначены град или гололедные отложения с указанием их диаметра в мм.
Облачность - указаны через наклонную черту общая и нижняя облачность в баллах и высота нижней границы облаков в метрах; квадратными скобками обозначены формы облаков: Ci - перистые, Cs - перисто-слоистые, Cc - перисто-кучевые, Ac - высококучевые, As - высокослоистые, Sc - слоисто-кучевые, Ns - слоисто-дождевые, Cu - кучевые, Cb - кучево-дождевые. Подробнее классификацию облаков см. в Атласе облаков (PDF).
T - Температура воздуха - температура, измеренная на высоте 2 м над землей.
Td - Температура точки росы - температура, при понижении до которой содержащийся в воздухе водяной пар достигнет насыщения.
f - Относительная влажность воздуха - влажноcть воздуха, измеренная на высоте 2 м над землей.
Te - Эффективная температура - температура, которую ощущает одетый по сезону человек в тени. Характеристика душности погоды. При расчете учитывается влияние влажности воздуха и скорости ветра на теплоощущения человека.
Tes - Эффективная температура на солнце - температура, которую ощущает человек, с поправкой на солнечный нагрев. Характеристика знойности погоды. Зависит от высоты солнца над горизонтом, облачности и скорости ветра. Ночью, в пасмурную погоду, а также при ветре 12 м/с и более поправка равна нулю.
P - Атмосферное давление - приведенное к уровню моря атмосферное давление.
Po - Атмосферное давление - измеренное на уровне метеостанции атмосферное давление.
Tmin - Минимальная температура - минимум температуры воздуха на высоте 2 м над землей.
Tmax - Максимальная температура - максимум температуры воздуха на высоте 2 м над землей.
R - Количество осадков - Количество выпавших осадков за период времени, мм. При наведении курсора мыши на число - период времени, за который выпало указанное количество осадков.
R24 - Количество осадков - Количество выпавших осадков за 24 часа, мм.
S - Снежный покров - Высота снежного покрова, см. При наведении курсора мыши на число - состояние снежного покрова и степень покрытия местности в баллах.